Location: Krakow
(50.0830°N, 19.9170°E)
Time: 05:52:37
(UTC+01:00)

Transit 2A - All Passes

Search period start: 08 February 2023 00:00
Search period end: 18 February 2023 00:00
Orbit: 593 x 963 km, 66.7° (Epoch: 07 February)

Date Brightness Start Highest point End Pass type
(mag) Time Alt. Az. Time Alt. Az. Time Alt. Az.
08 Feb - 01:32:25 10° NW 01:37:27 27° WSW 01:42:37 10° SSW night (unlit)
08 Feb - 14:34:33 10° SSE 14:38:08 20° ESE 14:41:59 10° ENE daylight
08 Feb - 16:15:38 10° SW 16:20:37 75° NW 16:26:14 10° NE daylight
08 Feb - 18:00:37 10° W 18:04:50 23° NNW 18:09:22 10° NNE visible
08 Feb - 19:46:56 10° NW 19:50:11 15° N 19:53:34 10° NE visible
08 Feb - 21:31:04 10° NNW 21:35:36 22° NNE 21:40:21 10° ENE visible
08 Feb - 23:14:03 10° NNW 23:20:02 59° NE 23:26:18 10° SE visible
09 Feb - 00:57:34 10° NW 01:03:06 36° WSW 01:08:48 10° S night (unlit)
09 Feb - 14:01:22 10° SE 14:03:56 14° ESE 14:06:37 10° ENE daylight
09 Feb - 15:41:07 10° SSW 15:46:04 82° SE 15:51:40 10° NE daylight
09 Feb - 17:25:30 10° W 17:29:58 28° NNW 17:34:51 10° NNE visible
09 Feb - 19:11:52 10° NW 19:15:10 16° N 19:18:38 10° NNE visible
09 Feb - 20:56:30 10° NNW 21:00:41 20° NNE 21:05:04 10° ENE visible
09 Feb - 22:39:33 10° NNW 22:45:22 47° NE 22:51:27 10° ESE visible
10 Feb - 00:22:51 10° NW 00:28:43 48° WSW 00:34:46 10° S night (unlit)
10 Feb - 15:06:44 10° SSW 15:11:36 59° ESE 15:17:03 10° NE daylight
10 Feb - 16:50:29 10° WSW 16:55:10 34° NW 17:00:20 10° NNE daylight
10 Feb - 18:36:42 10° NW 18:40:11 16° N 18:43:50 10° NNE visible
10 Feb - 20:21:52 10° NNW 20:25:44 18° NNE 20:29:46 10° ENE visible
10 Feb - 22:05:04 10° NNW 22:10:38 38° NE 22:16:29 10° ESE visible
10 Feb - 23:48:12 10° NW 23:54:16 64° WSW 00:00:32 10° SSE night (unlit)
11 Feb - 01:33:33 10° WNW 01:36:28 14° WSW 01:39:25 10° SW night (unlit)
11 Feb - 14:32:33 10° S 14:37:12 42° ESE 14:42:21 10° NE daylight
11 Feb - 16:15:33 10° WSW 16:20:25 42° NW 16:25:50 10° NNE daylight
11 Feb - 18:01:30 10° WNW 18:05:12 18° NNW 18:09:08 10° NNE visible
11 Feb - 19:47:10 10° NNW 19:50:45 16° N 19:54:29 10° NE visible
11 Feb - 21:30:34 10° NNW 21:35:52 31° NE 21:41:24 10° E visible
11 Feb - 23:13:36 10° NW 23:19:44 83° WSW 23:26:08 10° SSE visible
12 Feb - 00:58:02 10° WNW 01:02:14 19° WSW 01:06:31 10° SSW night (unlit)
12 Feb - 13:58:33 10° S 14:02:51 30° ESE 14:07:34 10° NE daylight
12 Feb - 15:40:44 10° SW 15:45:44 55° NW 15:51:19 10° NNE daylight
12 Feb - 17:26:17 10° WNW 17:30:16 20° NNW 17:34:30 10° NNE visible
12 Feb - 19:12:20 10° NNW 19:15:44 16° N 19:19:18 10° NE visible
12 Feb - 20:56:03 10° NNW 21:01:02 26° NNE 21:06:14 10° E visible
12 Feb - 22:39:03 10° NW 22:45:10 77° NE 22:51:34 10° SE visible
13 Feb - 00:22:56 10° NW 00:27:57 26° WSW 00:33:04 10° SSW night (unlit)
13 Feb - 13:24:50 10° SSE 13:28:34 21° ESE 13:32:36 10° ENE daylight
13 Feb - 15:06:03 10° SW 15:11:06 73° NW 15:16:46 10° NE daylight
13 Feb - 16:51:05 10° WNW 16:55:20 23° NNW 16:59:55 10° NNE daylight
13 Feb - 18:37:23 10° NW 18:40:43 15° N 18:44:12 10° NE visible
13 Feb - 20:21:31 10° NNW 20:26:09 23° NNE 20:30:59 10° ENE visible
13 Feb - 22:04:31 10° NNW 22:10:33 61° NE 22:16:51 10° SE visible
13 Feb - 23:48:04 10° NW 23:53:36 35° WSW 23:59:16 10° S visible
14 Feb - 12:51:33 10° SE 12:54:21 15° ESE 12:57:18 10° ENE daylight
14 Feb - 14:31:30 10° SSW 14:36:32 85° SE 14:42:12 10° NE daylight
14 Feb - 16:15:58 10° W 16:20:28 27° NNW 16:25:23 10° NNE daylight
14 Feb - 18:02:20 10° NW 18:05:42 16° N 18:09:14 10° NNE visible
14 Feb - 19:46:56 10° NNW 19:51:13 20° NNE 19:55:41 10° ENE visible
14 Feb - 21:30:00 10° NNW 21:35:53 48° NE 21:42:01 10° ESE visible
14 Feb - 23:13:19 10° NW 23:19:12 47° WSW 23:25:14 10° S visible
15 Feb - 13:57:06 10° SSW 14:02:02 62° ESE 14:07:34 10° NE daylight
15 Feb - 15:40:55 10° W 15:45:39 33° NW 15:50:51 10° NNE daylight
15 Feb - 17:27:09 10° NW 17:30:41 17° N 17:34:24 10° NNE visible
15 Feb - 19:12:17 10° NNW 19:16:15 18° NNE 19:20:22 10° ENE visible
15 Feb - 20:55:30 10° NNW 21:01:09 39° NE 21:07:02 10° ESE visible
15 Feb - 22:38:39 10° NW 22:44:44 62° WSW 22:51:00 10° SSE visible
16 Feb - 00:24:10 10° WNW 00:26:55 13° WSW 00:29:40 10° SW night (unlit)
16 Feb - 13:22:52 10° S 13:27:36 44° ESE 13:32:53 10° NE daylight
16 Feb - 15:05:58 10° WSW 15:10:52 41° NW 15:16:20 10° NNE daylight
16 Feb - 16:51:56 10° WNW 16:55:42 18° NNW 16:59:40 10° NNE daylight
16 Feb - 18:37:34 10° NNW 18:41:15 17° N 18:45:05 10° NE visible
16 Feb - 20:20:59 10° NNW 20:26:21 32° NE 20:31:58 10° E visible
16 Feb - 22:04:02 10° NW 22:10:13 81° SW 22:16:36 10° SSE visible
16 Feb - 23:48:33 10° WNW 23:52:41 19° WSW 23:56:52 10° SSW visible
17 Feb - 12:48:50 10° S 12:53:14 32° ESE 12:58:05 10° NE daylight
17 Feb - 14:31:07 10° WSW 14:36:09 53° NW 14:41:48 10° NNE daylight
17 Feb - 16:16:42 10° WNW 16:20:44 20° NNW 16:25:01 10° NNE daylight
17 Feb - 18:02:44 10° NNW 18:06:14 16° N 18:09:52 10° NE visible
17 Feb - 19:46:27 10° NNW 19:51:31 27° NNE 19:56:48 10° E visible
17 Feb - 21:29:28 10° NW 21:35:39 79° NE 21:42:03 10° SE visible
17 Feb - 23:13:25 10° NW 23:18:23 25° WSW 23:23:26 10° SSW visible
